Time,TemperatureF,DewpointF,PressureIn,WindDirection,WindDirectionDegrees,WindSpeedMPH,WindSpeedGustMPH,Humidity,HourlyPrecipIn,Conditions,Clouds,dailyrainin,SoftwareType,DateUTC
2013-03-05 00:03:00,35.2,30.0,29.93,East,94,6.0,-999.0,80,-99.99,,,0.00,weatherlink.com 1.10,2013-03-05 06:03:00,
2013-03-05 00:18:00,35.2,30.0,29.92,ENE,69,5.0,-999.0,80,-99.99,,,0.00,weatherlink.com 1.10,2013-03-05 06:18:00,
2013-03-05 00:33:00,35.3,30.0,29.92,ESE,109,8.0,-999.0,80,-99.99,,,0.00,weatherlink.com 1.10,2013-03-05 06:33:00,
2013-03-05 00:48:00,35.1,30.0,29.92,East,84,5.0,-999.0,80,-99.99,,,0.00,weatherlink.com 1.10,2013-03-05 06:48:00,
2013-03-05 01:03:00,34.5,30.0,29.92,East,95,6.0,-999.0,83,-99.99,,,0.00,weatherlink.com 1.10,2013-03-05 07:03:00,
2013-03-05 01:18:00,34.4,30.0,29.91,ESE,108,5.0,-999.0,84,-99.99,,,0.00,weatherlink.com 1.10,2013-03-05 07:18:00,
2013-03-05 01:34:00,34.4,30.0,29.90,ENE,75,5.0,-999.0,84,-99.99,,,0.00,weatherlink.com 1.10,2013-03-05 07:34:00,
2013-03-05 01:48:00,34.4,30.0,29.89,East,90,1.0,-999.0,85,-99.99,,,0.00,weatherlink.com 1.10,2013-03-05 07:48:00,
2013-03-05 02:04:00,34.4,30.0,29.89,East,96,2.0,-999.0,85,-99.99,,,0.00,weatherlink.com 1.10,2013-03-05 08:04:00,
2013-03-05 02:19:00,34.4,30.0,29.88,East,88,3.0,-999.0,85,-99.99,,,0.00,weatherlink.com 1.10,2013-03-05 08:19:00,
2013-03-05 02:34:00,34.4,30.0,29.87,SE,125,5.0,-999.0,85,-99.99,,,0.00,weatherlink.com 1.10,2013-03-05 08:34:00,
2013-03-05 02:49:00,34.4,30.0,29.88,ESE,121,7.0,-999.0,85,-99.99,,,0.00,weatherlink.com 1.10,2013-03-05 08:49:00,
2013-03-05 03:03:00,34.4,30.0,29.87,SE,126,6.0,-999.0,85,-99.99,,,0.00,weatherlink.com 1.10,2013-03-05 09:03:00,
2013-03-05 03:19:00,34.4,30.0,29.86,ENE,68,7.0,-999.0,85,-99.99,,,0.00,weatherlink.com 1.10,2013-03-05 09:19:00,
2013-03-05 03:34:00,34.7,31.0,29.85,ESE,114,3.0,-999.0,85,-99.99,,,0.00,weatherlink.com 1.10,2013-03-05 09:34:00,
2013-03-05 03:49:00,34.7,31.0,29.85,ENE,76,3.0,-999.0,85,-99.99,,,0.00,weatherlink.com 1.10,2013-03-05 09:49:00,
2013-03-05 04:04:00,34.8,30.0,29.85,East,79,3.0,-999.0,84,-99.99,,,0.00,weatherlink.com 1.10,2013-03-05 10:04:00,
2013-03-05 04:19:00,34.8,31.0,29.85,ESE,121,7.0,-999.0,85,-99.99,,,0.00,weatherlink.com 1.10,2013-03-05 10:19:00,
2013-03-05 04:34:00,34.6,31.0,29.85,East,80,3.0,-999.0,85,-99.99,,,0.00,weatherlink.com 1.10,2013-03-05 10:34:00,
2013-03-05 04:49:00,34.7,31.0,29.85,SE,125,5.0,-999.0,85,-99.99,,,0.00,weatherlink.com 1.10,2013-03-05 10:49:00,
2013-03-05 05:04:00,34.8,31.0,29.85,ENE,71,1.0,-999.0,85,-99.99,,,0.00,weatherlink.com 1.10,2013-03-05 11:04:00,
2013-03-05 05:19:00,34.9,31.0,29.84,East,86,3.0,-999.0,84,-99.99,,,0.00,weatherlink.com 1.10,2013-03-05 11:19:00,
2013-03-05 05:34:00,34.8,31.0,29.84,East,93,3.0,-999.0,85,-99.99,,,0.00,weatherlink.com 1.10,2013-03-05 11:34:00,
2013-03-05 05:49:00,34.8,31.0,29.84,ESE,115,5.0,-999.0,85,-99.99,,,0.00,weatherlink.com 1.10,2013-03-05 11:49:00,
2013-03-05 06:04:00,34.5,31.0,29.84,ESE,109,5.0,-999.0,86,-99.99,,,0.00,weatherlink.com 1.10,2013-03-05 12:04:00,
2013-03-05 06:19:00,34.4,31.0,29.84,ENE,74,1.0,-999.0,86,-99.99,,,0.00,weatherlink.com 1.10,2013-03-05 12:19:00,
2013-03-05 06:34:00,34.4,31.0,29.83,East,94,2.0,-999.0,86,-99.99,,,0.00,weatherlink.com 1.10,2013-03-05 12:34:00,
2013-03-05 06:49:00,34.4,31.0,29.83,East,98,2.0,-999.0,87,-99.99,,,0.00,weatherlink.com 1.10,2013-03-05 12:49:00,
2013-03-05 07:03:00,34.4,31.0,29.82,SE,144,6.0,-999.0,87,-99.99,,,0.00,weatherlink.com 1.10,2013-03-05 13:03:00,
2013-03-05 07:18:00,34.4,31.0,29.83,East,96,6.0,-999.0,87,-99.99,,,0.00,weatherlink.com 1.10,2013-03-05 13:18:00,
2013-03-05 07:34:00,34.4,31.0,29.83,ESE,103,7.0,-999.0,87,-99.99,,,0.00,weatherlink.com 1.10,2013-03-05 13:34:00,
2013-03-05 07:49:00,34.4,31.0,29.82,SE,133,7.0,-999.0,87,-99.99,,,0.00,weatherlink.com 1.10,2013-03-05 13:49:00,
2013-03-05 08:04:00,34.4,31.0,29.82,East,79,2.0,-999.0,87,-99.99,,,0.00,weatherlink.com 1.10,2013-03-05 14:04:00,
2013-03-05 08:19:00,34.4,31.0,29.82,ESE,104,1.0,-999.0,87,-99.99,,,0.00,weatherlink.com 1.10,2013-03-05 14:19:00,
2013-03-05 08:34:00,34.4,31.0,29.83,ENE,71,2.0,-999.0,88,-99.99,,,0.00,weatherlink.com 1.10,2013-03-05 14:34:00,
2013-03-05 08:49:00,34.4,32.0,29.82,ENE,75,0.0,-999.0,89,-99.99,,,0.01,weatherlink.com 1.10,2013-03-05 14:49:00,
2013-03-05 09:05:00,34.4,32.0,29.81,ENE,59,0.0,-999.0,90,-99.99,,,0.02,weatherlink.com 1.10,2013-03-05 15:05:00,
2013-03-05 09:20:00,34.4,32.0,29.80,East,88,4.0,-999.0,90,-99.99,,,0.03,weatherlink.com 1.10,2013-03-05 15:20:00,
2013-03-05 09:35:00,34.4,32.0,29.80,ENE,60,0.0,-999.0,91,-99.99,,,0.03,weatherlink.com 1.10,2013-03-05 15:35:00,
2013-03-05 09:50:00,34.4,32.0,29.79,ENE,69,2.0,-999.0,91,-99.99,,,0.03,weatherlink.com 1.10,2013-03-05 15:50:00,
2013-03-05 10:04:00,34.4,32.0,29.79,NE,49,0.0,-999.0,91,-99.99,,,0.03,weatherlink.com 1.10,2013-03-05 16:04:00,
2013-03-05 10:19:00,34.4,32.0,29.79,ENE,67,0.0,-999.0,91,-99.99,,,0.03,weatherlink.com 1.10,2013-03-05 16:19:00,
2013-03-05 10:34:00,34.4,32.0,29.79,East,84,0.0,-999.0,91,-99.99,,,0.04,weatherlink.com 1.10,2013-03-05 16:34:00,
2013-03-05 10:49:00,34.1,32.0,29.79,East,95,0.0,-999.0,91,-99.99,,,0.04,weatherlink.com 1.10,2013-03-05 16:49:00,
2013-03-05 11:05:00,33.8,32.0,29.78,ENE,76,1.0,-999.0,92,-99.99,,,0.04,weatherlink.com 1.10,2013-03-05 17:05:00,
2013-03-05 11:20:00,33.7,32.0,29.77,ENE,78,0.0,-999.0,92,-99.99,,,0.04,weatherlink.com 1.10,2013-03-05 17:20:00,
2013-03-05 11:35:00,33.7,32.0,29.77,ENE,69,2.0,-999.0,93,-99.99,,,0.05,weatherlink.com 1.10,2013-03-05 17:35:00,
2013-03-05 11:50:00,33.7,32.0,29.76,ENE,71,1.0,-999.0,93,-99.99,,,0.06,weatherlink.com 1.10,2013-03-05 17:50:00,
2013-03-05 12:05:00,33.6,32.0,29.76,East,97,0.0,-999.0,93,-99.99,,,0.07,weatherlink.com 1.10,2013-03-05 18:05:00,
2013-03-05 12:20:00,33.5,32.0,29.75,ENE,75,3.0,-999.0,93,-99.99,,,0.07,weatherlink.com 1.10,2013-03-05 18:20:00,
2013-03-05 12:35:00,33.5,32.0,29.75,ENE,72,0.0,-999.0,93,-99.99,,,0.07,weatherlink.com 1.10,2013-03-05 18:35:00,
2013-03-05 12:50:00,33.4,32.0,29.75,ENE,72,0.0,-999.0,93,-99.99,,,0.08,weatherlink.com 1.10,2013-03-05 18:50:00,
2013-03-05 13:05:00,33.4,32.0,29.74,ENE,72,0.0,-999.0,94,-99.99,,,0.08,weatherlink.com 1.10,2013-03-05 19:05:00,
2013-03-05 13:20:00,33.4,32.0,29.74,ENE,72,0.0,-999.0,94,-99.99,,,0.09,weatherlink.com 1.10,2013-03-05 19:20:00,
2013-03-05 13:35:00,33.3,32.0,29.74,ENE,71,0.0,-999.0,94,-99.99,,,0.09,weatherlink.com 1.10,2013-03-05 19:35:00,
2013-03-05 13:50:00,33.2,32.0,29.73,ENE,67,0.0,-999.0,94,-99.99,,,0.09,weatherlink.com 1.10,2013-03-05 19:50:00,
2013-03-05 14:05:00,33.1,32.0,29.74,North,9,1.0,-999.0,94,-99.99,,,0.10,weatherlink.com 1.10,2013-03-05 20:05:00,
2013-03-05 14:20:00,33.1,32.0,29.73,NNW,348,1.0,-999.0,94,-99.99,,,0.10,weatherlink.com 1.10,2013-03-05 20:20:00,
2013-03-05 14:35:00,33.1,32.0,29.74,NNW,345,0.0,-999.0,94,-99.99,,,0.11,weatherlink.com 1.10,2013-03-05 20:35:00,
2013-03-05 14:50:00,33.0,32.0,29.74,NW,313,3.0,-999.0,94,-99.99,,,0.12,weatherlink.com 1.10,2013-03-05 20:50:00,
2013-03-05 15:05:00,32.9,31.0,29.74,NW,323,4.0,-999.0,94,-99.99,,,0.13,weatherlink.com 1.10,2013-03-05 21:05:00,
2013-03-05 15:20:00,32.8,31.0,29.75,NW,308,4.0,-999.0,94,-99.99,,,0.13,weatherlink.com 1.10,2013-03-05 21:20:00,
2013-03-05 15:35:00,32.8,31.0,29.75,NW,324,3.0,-999.0,94,-99.99,,,0.13,weatherlink.com 1.10,2013-03-05 21:35:00,
2013-03-05 15:50:00,32.8,31.0,29.75,NNW,331,1.0,-999.0,94,-99.99,,,0.13,weatherlink.com 1.10,2013-03-05 21:50:00,
2013-03-05 16:05:00,32.7,32.0,29.75,NW,317,1.0,-999.0,95,-99.99,,,0.14,weatherlink.com 1.10,2013-03-05 22:05:00,
2013-03-05 16:21:00,32.7,32.0,29.75,NW,317,4.0,-999.0,95,-99.99,,,0.14,weatherlink.com 1.10,2013-03-05 22:21:00,
2013-03-05 16:36:00,32.5,31.0,29.75,NNW,333,4.0,-999.0,95,-99.99,,,0.15,weatherlink.com 1.10,2013-03-05 22:36:00,
2013-03-05 16:51:00,32.5,31.0,29.75,NW,324,7.0,-999.0,95,-99.99,,,0.15,weatherlink.com 1.10,2013-03-05 22:51:00,
2013-03-05 17:05:00,32.3,31.0,29.76,NW,316,8.0,-999.0,95,-99.99,,,0.15,weatherlink.com 1.10,2013-03-05 23:05:00,
2013-03-05 17:20:00,31.7,31.0,29.77,WNW,290,9.0,-999.0,95,-99.99,,,0.15,weatherlink.com 1.10,2013-03-05 23:20:00,
2013-03-05 17:35:00,31.1,30.0,29.78,NW,316,9.0,-999.0,95,-99.99,,,0.15,weatherlink.com 1.10,2013-03-05 23:35:00,
2013-03-05 17:50:00,30.5,29.0,29.77,NW,321,16.0,-999.0,95,-99.99,,,0.15,weatherlink.com 1.10,2013-03-05 23:50:00,
2013-03-05 18:06:00,30.6,29.0,29.78,North,5,4.0,-999.0,95,-99.99,,,0.15,weatherlink.com 1.10,2013-03-06 00:06:00,
2013-03-05 18:21:00,30.6,29.0,29.78,NW,312,9.0,-999.0,95,-99.99,,,0.15,weatherlink.com 1.10,2013-03-06 00:21:00,
2013-03-05 18:36:00,30.6,29.0,29.79,NW,323,4.0,-999.0,95,-99.99,,,0.15,weatherlink.com 1.10,2013-03-06 00:36:00,
2013-03-05 18:51:00,30.8,30.0,29.79,NW,324,3.0,-999.0,95,-99.99,,,0.15,weatherlink.com 1.10,2013-03-06 00:51:00,
2013-03-05 19:06:00,31.1,30.0,29.80,NNW,344,4.0,-999.0,95,-99.99,,,0.15,weatherlink.com 1.10,2013-03-06 01:06:00,
2013-03-05 19:21:00,31.0,30.0,29.80,NNE,14,2.0,-999.0,95,-99.99,,,0.15,weatherlink.com 1.10,2013-03-06 01:21:00,
2013-03-05 19:36:00,30.7,30.0,29.80,North,360,5.0,-999.0,95,-99.99,,,0.15,weatherlink.com 1.10,2013-03-06 01:36:00,
2013-03-05 19:51:00,30.5,29.0,29.81,NNW,348,2.0,-999.0,95,-99.99,,,0.15,weatherlink.com 1.10,2013-03-06 01:51:00,
2013-03-05 20:06:00,29.9,29.0,29.81,North,9,4.0,-999.0,95,-99.99,,,0.15,weatherlink.com 1.10,2013-03-06 02:06:00,
2013-03-05 20:21:00,29.3,28.0,29.82,North,360,1.0,-999.0,95,-99.99,,,0.15,weatherlink.com 1.10,2013-03-06 02:21:00,
2013-03-05 20:36:00,29.2,28.0,29.83,NW,319,7.0,-999.0,95,-99.99,,,0.15,weatherlink.com 1.10,2013-03-06 02:36:00,
2013-03-05 20:51:00,28.9,28.0,29.84,NNW,331,1.0,-999.0,95,-99.99,,,0.15,weatherlink.com 1.10,2013-03-06 02:51:00,
2013-03-05 21:06:00,28.8,28.0,29.84,NNW,340,6.0,-999.0,95,-99.99,,,0.15,weatherlink.com 1.10,2013-03-06 03:06:00,
2013-03-05 21:21:00,28.6,27.0,29.85,North,351,3.0,-999.0,95,-99.99,,,0.15,weatherlink.com 1.10,2013-03-06 03:21:00,
2013-03-05 21:36:00,28.8,28.0,29.86,North,9,4.0,-999.0,95,-99.99,,,0.15,weatherlink.com 1.10,2013-03-06 03:36:00,
2013-03-05 21:51:00,28.9,28.0,29.86,North,355,5.0,-999.0,95,-99.99,,,0.15,weatherlink.com 1.10,2013-03-06 03:51:00,
2013-03-05 22:06:00,29.0,28.0,29.87,NW,309,9.0,-999.0,95,-99.99,,,0.15,weatherlink.com 1.10,2013-03-06 04:06:00,
2013-03-05 22:21:00,29.2,28.0,29.88,NNW,346,12.0,-999.0,95,-99.99,,,0.15,weatherlink.com 1.10,2013-03-06 04:21:00,
2013-03-05 22:36:00,29.4,28.0,29.89,NNW,329,2.0,-999.0,95,-99.99,,,0.15,weatherlink.com 1.10,2013-03-06 04:36:00,
2013-03-05 22:51:00,29.5,28.0,29.90,NNW,342,3.0,-999.0,95,-99.99,,,0.15,weatherlink.com 1.10,2013-03-06 04:51:00,
2013-03-05 23:06:00,29.6,28.0,29.90,NNW,346,6.0,-999.0,95,-99.99,,,0.15,weatherlink.com 1.10,2013-03-06 05:06:00,
2013-03-05 23:21:00,29.6,28.0,29.90,NNW,343,4.0,-999.0,95,-99.99,,,0.15,weatherlink.com 1.10,2013-03-06 05:21:00,
2013-03-05 23:36:00,29.7,29.0,29.91,NNW,338,4.0,-999.0,95,-99.99,,,0.15,weatherlink.com 1.10,2013-03-06 05:36:00,
2013-03-05 23:51:00,29.8,29.0,29.91,NW,321,3.0,-999.0,95,-99.99,,,0.15,weatherlink.com 1.10,2013-03-06 05:51:00,